Weather observations for the past three days for
Danbury, Danbury Municipal Airport
Imperial (Metric)
Date Time (edt) Wind (mph) Vis. (mi.) Weather Sky Cond. Temperature (ºF) Relative Humidity Wind Chill (°F) Heat Index (°F) Pressure Precipitation (in)
Air Dwpt 6 hour altimeter (in) sea level (mb) 1 hr 3 hr 6 hr
Max. Min.
19 03:53 Vrbl 3 10.00 Fair CLR 64.9 55 70% 30.06 1017.4
19 02:53 N 6 10.00 Fair CLR 66.9 54 63% 30.05 1017.3
19 01:53 Calm 10.00 Fair CLR 66 57 78.1 62.1 73% 30.05 1017.2
19 00:53 SW 3 10.00 Fair CLR 64 60.1 87% 30.04 1017.0
18 23:53 Calm 10.00 Fair CLR 66 60.1 81% 30.04 1016.6
18 22:53 Calm 10.00 Partly Cloudy SCT055 69.1 63 81% 30.03 1016.4
18 21:53 Calm 10.00 Fair CLR 70 64 82% 30.01 1015.7
18 20:53 Calm 10.00 Fair CLR 72 62.1 71% 29.98 1014.8
18 19:53 N 6 10.00 Fair CLR 78.1 59 84 78.1 52% 79 29.95 1013.8
18 18:53 NW 8 10.00 Fair CLR 82 61 49% 83 29.92 1012.8
18 17:53 SW 6 10.00 Fair CLR 81 64.9 58% 83 29.92 1012.8
18 16:53 W 6 10.00 Fair CLR 82.9 62.1 49% 84 29.92 1012.7
18 15:53 W 9 10.00 Partly Cloudy SCT050 SCT060 82.9 61 48% 83 29.92 1012.8
18 14:53 W 5 10.00 Partly Cloudy SCT047 82 63 53% 83 29.93 1013.1
18 13:53 N 7 10.00 Fair CLR 82 61 82.9 75 49% 83 29.93 1013.0
18 12:53 NW 8 10.00 Fair CLR 82 61 49% 83 29.93 1012.9
18 11:53 NW 9 10.00 Fair CLR 81 61 51% 82 29.93 1012.9
18 10:53 N 8 10.00 Fair CLR 78.1 62.1 58% 80 29.93 1013.2
18 09:53 Calm 10.00 Fair CLR 75 64 69% 77 29.92 1012.9
18 08:53 N 3 10.00 Fair CLR 75.9 64.9 69% 78 29.9 1012.2
18 07:53 N 7 10.00 A Few Clouds FEW035 75 66.9 75 73 76% 76 29.9 1012.2
18 06:53 W 3 10.00 Mostly Cloudy SCT008 BKN035 73 71.1 94% 29.89 1011.7
18 05:53 Calm 10.00 Mostly Cloudy SCT007 BKN037 73 70 90% 29.86 1010.7
18 04:53 Calm 10.00 Fair CLR 73 71.1 94% 29.85 1010.2
18 03:53 W 3 10.00 Overcast SCT011 OVC016 73.9 71.1 91% 29.83 1009.7
18 02:53 SW 6 10.00 Mostly Cloudy FEW010 BKN016 73.9 71.1 91% 29.82 1009.1
18 01:53 W 3 10.00 Light Rain BKN007 OVC110 73.9 72 77 73.9 94% 29.81 1008.8 0.95
18 00:53 Calm 10.00 Light Rain FEW006 BKN120 73.9 72 94% 29.82 1009.1 0.01
17 23:53 SE 3 9.00 Light Rain OVC080 73.9 72 94% 29.86 1010.7 0.05
17 22:53 Calm 7.00 Thunderstorm in Vicinity Light Rain FEW070 BKN090 OVC120 73.9 72 94% 29.86 1010.5 0.19 0.89
17 21:53 Calm 5.00 Thunderstorm in Vicinity Rain Fog/Mist FEW008 BKN034 OVC070 75 73 94% 73 29.86 1010.8 0.7
17 20:53 Calm 10.00 Mostly Cloudy SCT070 BKN120 75.9 73.9 94% 75 29.84 1009.9
17 19:53 NE 5 10.00 Mostly Cloudy BKN043 75.9 72 89.1 73 88% 76 29.84 1010.2 0.69
17 18:53 E 3 10.00 A Few Clouds FEW060 FEW120 77 71.1 82% 79 29.83 1009.7
17 17:53 SE 7 10.00 Thunderstorm in Vicinity SCT065 75 71.1 88% 75 29.83 1009.6 0.1
17 16:53 NW 14 G 36 0.25 Thunderstorm Heavy Rain Fog BKN013 BKN028 OVC080 73 70 90% 29.86 1010.7 0.59 0.59
17 15:53 S 8 10.00 Fair CLR 87.1 72 61% 94 29.8 1008.7
17 14:53 Vrbl 7 10.00 A Few Clouds FEW032 89.1 73 59% 97 29.81 1009.0
17 13:53 S 7 10.00 Fair CLR 88 72 88 77 59% 95 29.82 1009.3
17 12:53 S 9 10.00 Fair CLR 87.1 73 63% 95 29.85 1010.3
17 11:53 S 6 10.00 Fair CLR 84 71.1 65% 89 29.87 1010.9
17 10:53 SE 3 10.00 Fair CLR 82.9 71.1 67% 88 29.88 1011.3
17 09:53 SE 6 10.00 Mostly Cloudy SCT075 SCT090 BKN110 80.1 71.1 74% 84 29.89 1011.6
17 08:53 Calm 10.00 Partly Cloudy SCT075 SCT120 79 71.1 77% 82 29.89 1011.7
17 07:53 Vrbl 3 10.00 Fair CLR 77 70 77 70 79% 79 29.88 1011.2
17 06:53 Calm 10.00 Fair CLR 73 69.1 87% 29.86 1010.8
17 05:53 SW 5 10.00 Fair CLR 71.1 66.9 87% 29.84 1010.0
17 04:53 Calm 10.00 Fair CLR 71.1 68 90% 29.83 1009.7
17 03:53 Calm 10.00 Fair CLR 72 69.1 91% 29.83 1009.7
17 02:53 N 3 10.00 Fair CLR 73 70 90% 29.83 1009.7
17 01:53 N 3 10.00 Fair CLR 75 70 81 73.9 84% 75 29.84 1010.0
17 00:53 W 7 10.00 Fair CLR 75 71.1 88% 75 29.84 1009.9
16 23:53 W 6 10.00 Fair CLR 77 71.1 82% 79 29.83 1009.6
16 22:53 SW 8 10.00 Fair CLR 79 71.1 77% 82 29.82 1009.2
16 21:53 W 6 10.00 Fair CLR 79 73 82% 82 29.81 1008.8
16 20:53 W 3 10.00 A Few Clouds FEW075 79 75 88% 83 29.78 1007.8
16 19:53 Calm 10.00 Mostly Cloudy BKN085 81 75 93 80.1 82% 87 29.75 1007.0 0.04
16 18:53 S 13 G 40 2.50 Light Rain FEW045 SCT090 BKN110 81 68 65% 84 29.74 1006.6 0.04
16 17:53 S 10 10.00 Fair CLR 89.1 70 53% 94 29.72 1005.8
16 16:53 S 15 G 25 10.00 Fair CLR 91 71.1 52% 98 29.73 1006.2
16 15:53 S 17 G 29 10.00 Fair CLR 91.9 70 49% 98 29.75 1007.0
16 14:53 S 8 G 18 10.00 Mostly Cloudy BKN055 91.9 70 49% 98 29.79 1008.1
16 13:53 S 7 10.00 Fair CLR 91 69.1 91.9 77 49% 96 29.81 1009.0
16 12:53 S 8 10.00 Fair CLR 89.1 66.9 48% 92 29.84 1009.9
16 11:53 Vrbl 6 10.00 Fair CLR 86 66 51% 88 29.86 1010.5
16 10:53 SW 10 10.00 Fair CLR 84 66.9 57% 87 29.86 1010.7
16 09:53 W 7 10.00 Fair CLR 81 66.9 62% 83 29.85 1010.4
16 08:53 W 8 10.00 Fair CLR 80.1 68 67% 83 29.86 1010.6
16 07:53 SW 3 10.00 Fair CLR 77 68 77 69.1 74% 79 29.87 1010.9
16 06:53 Calm 10.00 Fair CLR 70 68 93% 29.85 1010.3
16 05:53 Calm 9.00 Fair CLR 69.1 66.9 93% 29.84 1009.9
16 04:53 Calm 9.00 Fair CLR 69.1 66.9 93% 29.83 1009.6
Date Time (edt) Wind (mph) Vis. (mi.) Weather Sky Cond. Air Dwpt Max. Min. Relative Humidity Wind Chill (°F) Heat Index (°F) altimeter (in) sea level (mb) 1 hr 3 hr 6 hr
6 hour
Temperature (ºF) Pressure Precipitation (in)